TimeCDT,TemperatureF,Dew PointF,Humidity,Sea Level PressureIn,VisibilityMPH,Wind Direction,Wind SpeedMPH,Gust SpeedMPH,PrecipitationIn,Events,Conditions,WindDirDegrees,DateUTC
12:15 AM,39.2,28.4,65,30.00,10.0,SSE,13.8,-,N/A,,Overcast,150,2014-04-16 05:15:00
12:35 AM,39.2,28.4,65,30.00,10.0,SSE,12.7,19.6,N/A,,Overcast,150,2014-04-16 05:35:00
12:55 AM,39.2,28.4,65,29.99,10.0,SSE,15.0,-,N/A,,Overcast,160,2014-04-16 05:55:00
1:15 AM,39.2,28.4,65,29.99,10.0,SSE,16.1,23.0,N/A,,Overcast,160,2014-04-16 06:15:00
1:35 AM,39.2,28.4,65,29.98,10.0,SSE,16.1,-,N/A,,Overcast,150,2014-04-16 06:35:00
1:55 AM,39.2,28.4,65,29.97,10.0,SSE,16.1,24.2,N/A,,Overcast,160,2014-04-16 06:55:00
2:15 AM,39.2,28.4,65,29.96,10.0,SSE,16.1,-,N/A,,Overcast,160,2014-04-16 07:15:00
2:35 AM,39.2,28.4,65,29.96,10.0,SSE,17.3,23.0,N/A,,Overcast,160,2014-04-16 07:35:00
2:55 AM,39.2,26.6,61,29.96,10.0,SSE,15.0,21.9,N/A,,Overcast,160,2014-04-16 07:55:00
3:15 AM,39.2,26.6,61,29.95,10.0,SSE,18.4,-,N/A,,Overcast,160,2014-04-16 08:15:00
3:35 AM,39.2,26.6,61,29.95,10.0,SSE,18.4,24.2,N/A,,Overcast,160,2014-04-16 08:35:00
3:55 AM,41.0,26.6,57,29.95,10.0,SSE,17.3,23.0,N/A,,Overcast,160,2014-04-16 08:55:00
4:15 AM,41.0,26.6,57,29.95,10.0,South,17.3,-,N/A,,Overcast,170,2014-04-16 09:15:00
4:35 AM,39.2,26.6,61,29.95,10.0,South,16.1,23.0,N/A,,Overcast,170,2014-04-16 09:35:00
4:55 AM,39.2,26.6,61,29.94,10.0,SSE,18.4,-,N/A,,Overcast,160,2014-04-16 09:55:00
5:15 AM,39.2,26.6,61,29.94,10.0,South,17.3,23.0,N/A,,Overcast,170,2014-04-16 10:15:00
5:35 AM,39.2,26.6,61,29.93,10.0,SSE,17.3,24.2,N/A,,Overcast,160,2014-04-16 10:35:00
5:55 AM,39.2,26.6,61,29.93,10.0,South,16.1,-,N/A,,Overcast,170,2014-04-16 10:55:00
6:15 AM,39.2,26.6,61,29.93,10.0,South,18.4,-,N/A,,Overcast,170,2014-04-16 11:15:00
6:35 AM,39.2,26.6,61,29.93,10.0,South,18.4,-,N/A,,Partly Cloudy,170,2014-04-16 11:35:00
6:55 AM,41.0,26.6,57,29.94,10.0,South,16.1,21.9,N/A,,Clear,170,2014-04-16 11:55:00
7:15 AM,41.0,26.6,57,29.94,10.0,South,19.6,-,N/A,,Clear,170,2014-04-16 12:15:00
7:35 AM,42.8,26.6,53,29.94,10.0,South,20.7,31.1,N/A,,Clear,170,2014-04-16 12:35:00
7:55 AM,42.8,26.6,53,29.94,10.0,South,17.3,26.5,N/A,,Clear,170,2014-04-16 12:55:00
8:15 AM,44.6,28.4,53,29.94,10.0,South,20.7,27.6,N/A,,Clear,170,2014-04-16 13:15:00
8:35 AM,44.6,28.4,53,29.94,10.0,South,20.7,27.6,N/A,,Clear,180,2014-04-16 13:35:00
8:55 AM,48.2,30.2,50,29.93,10.0,South,24.2,39.1,N/A,,Clear,180,2014-04-16 13:55:00
9:15 AM,48.2,28.4,46,29.92,10.0,South,29.9,39.1,N/A,,Clear,180,2014-04-16 14:15:00
9:35 AM,50.0,28.4,43,29.93,10.0,South,25.3,38.0,N/A,,Clear,180,2014-04-16 14:35:00
9:55 AM,50.0,30.2,47,29.93,10.0,South,23.0,36.8,N/A,,Clear,180,2014-04-16 14:55:00
10:15 AM,51.8,32.0,47,29.92,10.0,South,27.6,38.0,N/A,,Clear,170,2014-04-16 15:15:00
10:35 AM,53.6,32.0,44,29.91,10.0,South,32.2,40.3,N/A,,Clear,180,2014-04-16 15:35:00
10:55 AM,53.6,32.0,44,29.92,10.0,South,27.6,41.4,N/A,,Clear,180,2014-04-16 15:55:00
11:15 AM,53.6,30.2,41,29.91,10.0,South,31.1,40.3,N/A,,Clear,180,2014-04-16 16:15:00
11:35 AM,53.6,32.0,44,29.91,10.0,South,27.6,36.8,N/A,,Clear,180,2014-04-16 16:35:00
11:55 AM,57.2,33.8,41,29.89,10.0,South,29.9,40.3,N/A,,Clear,180,2014-04-16 16:55:00
12:15 PM,57.2,33.8,41,29.89,10.0,South,31.1,42.6,N/A,,Clear,180,2014-04-16 17:15:00
12:35 PM,57.2,32.0,38,29.87,10.0,South,36.8,44.9,N/A,,Clear,180,2014-04-16 17:35:00
1:15 PM,59.0,32.0,36,29.84,10.0,South,35.7,48.3,N/A,,Clear,190,2014-04-16 18:15:00
1:35 PM,59.0,30.2,34,29.83,10.0,South,38.0,51.8,N/A,,Clear,180,2014-04-16 18:35:00
1:55 PM,59.0,33.8,39,29.83,10.0,South,29.9,36.8,N/A,,Clear,170,2014-04-16 18:55:00
2:15 PM,60.8,32.0,34,29.81,10.0,South,34.5,46.0,N/A,,Clear,180,2014-04-16 19:15:00
2:35 PM,60.8,32.0,34,29.81,10.0,South,35.7,44.9,N/A,,Clear,180,2014-04-16 19:35:00
2:55 PM,60.8,33.8,36,29.81,10.0,South,31.1,-,N/A,,Clear,170,2014-04-16 19:55:00
3:15 PM,60.8,33.8,36,29.81,10.0,South,31.1,40.3,N/A,,Clear,180,2014-04-16 20:15:00
3:35 PM,60.8,33.8,36,29.81,10.0,South,29.9,43.7,N/A,,Clear,180,2014-04-16 20:35:00
3:55 PM,62.6,33.8,34,29.81,10.0,South,29.9,38.0,N/A,,Clear,180,2014-04-16 20:55:00
4:15 PM,62.6,33.8,34,29.82,10.0,SSW,29.9,46.0,N/A,,Partly Cloudy,200,2014-04-16 21:15:00
4:35 PM,60.8,33.8,36,29.82,10.0,South,25.3,40.3,N/A,,Mostly Cloudy,190,2014-04-16 21:35:00
4:55 PM,60.8,33.8,36,29.82,10.0,South,25.3,40.3,N/A,,Overcast,190,2014-04-16 21:55:00
5:15 PM,60.8,33.8,36,29.81,10.0,SSW,27.6,38.0,N/A,,Overcast,200,2014-04-16 22:15:00
5:35 PM,60.8,35.6,39,29.81,10.0,South,24.2,32.2,N/A,,Mostly Cloudy,180,2014-04-16 22:35:00
5:55 PM,60.8,35.6,39,29.81,10.0,South,23.0,31.1,N/A,,Mostly Cloudy,180,2014-04-16 22:55:00
6:15 PM,60.8,35.6,39,29.81,10.0,South,26.5,33.4,N/A,,Scattered Clouds,180,2014-04-16 23:15:00
6:35 PM,59.0,35.6,42,29.81,10.0,South,23.0,29.9,N/A,,Partly Cloudy,190,2014-04-16 23:35:00
6:55 PM,60.8,33.8,36,29.81,10.0,South,20.7,28.8,N/A,,Partly Cloudy,190,2014-04-16 23:55:00
7:15 PM,60.8,33.8,36,29.81,10.0,South,19.6,25.3,N/A,,Clear,180,2014-04-17 00:15:00
7:35 PM,59.0,35.6,42,29.81,10.0,South,17.3,-,N/A,,Clear,180,2014-04-17 00:35:00
7:55 PM,57.2,35.6,44,29.82,10.0,South,16.1,-,N/A,,Clear,180,2014-04-17 00:55:00
8:15 PM,57.2,35.6,44,29.82,10.0,South,13.8,20.7,N/A,,Mostly Cloudy,170,2014-04-17 01:15:00
8:35 PM,57.2,35.6,44,29.83,10.0,South,16.1,-,N/A,,Overcast,180,2014-04-17 01:35:00
8:55 PM,57.2,35.6,44,29.86,10.0,SSW,15.0,-,N/A,,Overcast,200,2014-04-17 01:55:00
9:15 PM,55.4,35.6,47,29.86,10.0,South,15.0,-,N/A,,Overcast,190,2014-04-17 02:15:00
9:35 PM,55.4,35.6,47,29.89,10.0,West,16.1,-,N/A,,Mostly Cloudy,260,2014-04-17 02:35:00
9:55 PM,51.8,37.4,58,29.90,10.0,West,12.7,19.6,N/A,,Mostly Cloudy,280,2014-04-17 02:55:00
10:15 PM,50.0,35.6,58,29.91,10.0,West,17.3,-,N/A,,Overcast,270,2014-04-17 03:15:00
10:35 PM,48.2,35.6,62,29.93,10.0,West,18.4,-,N/A,,Overcast,280,2014-04-17 03:35:00
10:55 PM,46.4,35.6,66,29.94,10.0,West,19.6,29.9,N/A,,Overcast,280,2014-04-17 03:55:00
11:15 PM,44.6,35.6,71,29.96,10.0,West,18.4,27.6,N/A,,Overcast,280,2014-04-17 04:15:00
11:35 PM,42.8,35.6,76,29.97,10.0,West,15.0,21.9,N/A,,Overcast,280,2014-04-17 04:35:00
11:55 PM,42.8,37.4,81,29.98,10.0,West,18.4,27.6,N/A,,Overcast,280,2014-04-17 04:55:00